Location: Gälforsberget
(66.6500°N, 22.4167°E)
Time: 18:09:46
(UTC+00:00)

Cosmos 2360 Rocket - Pass Details

Date: 11 April 2026
Orbit: 831 x 845 km, 71.0° (Epoch: 16 May)

Event Time Altitude Azimuth Distance (km) Brightness Sun altitude
Rises 22:10:09 0° 272° (W) 3,397 5.4 -14.7°
Reaches altitude 10° 22:12:39 10° 277° (W) 2,465 4.8 -14.7°
Maximum altitude 22:18:13 56° 356° (N) 1,000 3.0 -14.7°
Drops below altitude 10° 22:23:49 10° 75° (ENE) 2,475 4.8 -14.7°
Sets 22:26:20 0° 79° (E) 3,412 5.5 -14.8°
